SCP
0 1 1 1 1 1 1 1 1 1 1 1 1 1 1 1 1 1 2 2 2 3 3 3 3 3 2 2 2 1 1 1 1 1 1 1 1 1 1 1 1 1 1
1 1 1 1 1 0 0 1 1 1 1 1 1 1 1 1 1 1 1 2 2 2 2 3 3 3 3 2 2 2 2 1 1 1 1 1 1 1 1 1 1 1 1
1 1 1 1 0 0 0 0 1 1 1 1 1 1 1 1 1 1 1 1 1 1 2 2 3 3 3 3 3 3 2 2 2 2 1 1 1 1 1 1 1 1 1
1 1 1 1 0 0 0 0 1 1 1 1 1 1 1 1 1 1 1 1 1 1 1 1 2 2 2 3 3 3 3 3 2 2 2 2 2 2 2 2 2 2 2
1 1 1 1 1 0 0 0 0 0 1 1 1 1 1 1 1 0 1 1 1 1 1 1 1 1 2 2 3 4 4 3 3 2 2 2 2 2 2 2 2 2 2
0 1 1 1 1 0 0 0 0 0 0 0 0 0 0 0 0 0 0 0 0 1 1 1 1 1 1 1 2 3 4 4 3 3 3 2 2 2 2 2 2 2 2
0 0 1 1 1 0 0 0 0 0 0 0 0 0 0 0 0 0 1 0 0 0 0 1 1 1 1 1 1 2 3 4 4 4 3 3 3 2 2 2 2 2 2
0 1 1 1 1 1 1 1 0 0 0 0 0 1 1 0 0 0 0 1 1 0 0 1 1 1 1 1 1 1 2 3 3 4 4 4 3 3 2 2 2 1 1
1 1 1 1 1 1 1 1 1 0 0 0 1 1 1 1 0 0 1 1 1 1 1 1 1 1 1 1 1 1 1 1 2 3 4 4 4 3 3 2 2 1 1
1 1 1 1 1 1 1 1 1 1 1 1 1 1 1 1 1 1 1 1 1 1 1 1 1 1 1 1 1 0 1 1 1 2 3 4 4 4 3 3 2 2 2
1 1 1 1 1 1 1 1 1 1 1 1 1 1 1 1 1 1 1 1 1 1 1 1 1 1 1 1 1 1 1 1 1 1 2 3 4 5 4 4 3 3 3
2 2 1 1 1 1 1 1 1 1 1 1 1 1 2 2 1 1 1 1 1 1 1 1 1 1 1 1 1 1 1 1 1 1 2 3 4 5 5 5 4 4 4
3 2 2 2 2 1 1 1 1 1 1 1 2 2 2 2 2 2 2 1 1 1 1 1 1 1 1 1 1 1 1 1 1 1 1 1 2 3 4 5 5 4 4
3 3 3 2 2 2 2 2 2 1 1 1 1 2 2 2 2 2 2 2 2 2 1 1 1 1 1 1 1 1 1 1 0 0 0 1 1 2 3 4 4 4 4
3 2 2 2 2 2 2 2 2 2 1 1 1 2 2 2 2 2 2 2 2 2 2 2 1 1 1 1 1 1 1 1 0 0 0 0 0 1 2 2 3 3 3
2 2 1 1 2 2 2 2 2 2 2 1 1 2 2 2 2 2 2 2 2 2 3 2 2 1 1 1 1 1 1 1 0 0 0 0 0 0 1 1 1 1 2
1 1 1 1 2 2 2 2 2 2 2 1 1 1 1 2 2 2 2 2 2 2 2 2 2 2 1 1 1 1 1 1 0 0 0 0 0 0 0 0 1 1 1
2 1 1 2 2 3 2 2 2 2 2 1 1 1 2 2 2 2 2 2 3 3 2 2 2 2 1 1 1 1 1 1 0 0 0 0 0 0 0 0 0 0 0
2 2 2 2 3 3 2 2 2 2 2 2 2 2 2 2 2 2 2 3 3 3 3 2 2 2 1 1 1 1 1 1 1 0 0 0 0 0 0 0 0 0 0
3 3 3 3 3 2 2 2 2 2 2 2 2 2 3 3 3 3 3 3 3 3 3 3 2 2 2 2 1 1 1 1 1 0 0 0 0 0 0 0 0 0 0
5 5 4 4 3 2 1 1 2 2 3 3 2 2 2 2 2 2 2 3 3 3 3 3 2 2 2 2 2 2 1 1 1 1 0 0 0 0 0 0 0 0 0
7 7 5 3 2 2 1 1 1 2 2 2 2 2 2 2 2 2 2 2 2 2 2 2 2 2 2 2 2 2 2 2 1 1 1 1 1 1 1 1 0 0 0
9 7 5 3 2 1 1 1 1 1 1 2 2 2 2 2 2 2 2 1 1 1 1 2 2 2 2 2 2 2 2 2 2 2 1 1 1 1 1 1 0 0 0
7 5 3 2 1 1 1 0 0 1 1 1 1 1 2 2 2 2 2 2 2 2 1 1 1 2 2 2 2 2 2 2 2 2 2 2 2 1 1 1 0 0 0
3 3 2 1 1 1 1 0 0 1 1 1 1 1 1 2 1 1 2 2 2 2 2 1 1 1 1 1 1 2 2 2 2 2 2 2 3 2 1 0 0 0 0
2 1 1 1 1 1 1 0 0 1 2 1 1 1 1 1 1 1 1 2 2 2 2 2 1 1 1 1 1 1 1 2 2 2 2 3 3 3 1 0 0 0 0
Wind_Speed
1 0 1 1 1 1 1 1 1 1 1 2 2 2 2 3 3 3 2 7 7 8 9 9 9 9 9 8 8 8 8 9 9 8 8 8 8 7 7 7 7 7 6
1 1 1 1 1 1 1 1 1 1 1 1 2 2 2 3 3 3 3 4 7 8 8 8 9 9 9 9 9 8 8 8 8 8 8 8 8 8 8 8 7 6 6
2 1 1 1 2 1 1 1 1 1 1 1 1 2 2 2 3 3 3 3 3 6 7 8 8 8 9 9 9 9 9 8 8 8 8 8 8 8 7 7 7 6 6
2 2 1 2 2 1 1 1 1 0 1 1 1 2 1 2 3 3 3 3 3 3 5 7 8 8 9 9 9 9 9 9 9 9 9 9 9 8 7 7 7 7 7
2 2 2 2 1 1 1 1 0 1 1 1 1 2 1 1 2 2 3 3 3 3 3 4 6 7 9 10 10 9 9 9 9 10 10 10 10 9 8 8 8 7 7
2 2 2 2 1 1 1 0 1 0 1 1 1 2 2 2 1 2 2 2 3 3 3 3 3 4 8 9 9 10 10 9 9 10 10 11 11 10 9 9 8 8 8
2 2 2 1 1 1 1 1 1 0 1 0 0 2 2 2 1 1 1 2 2 3 3 4 3 3 3 7 8 9 10 10 10 9 10 11 11 10 10 9 9 8 8
3 3 2 2 2 1 1 1 1 1 0 0 1 0 2 3 2 1 1 1 2 2 3 4 4 4 4 3 4 8 9 9 10 9 9 10 10 10 10 10 9 9 9
2 2 2 2 2 2 2 2 2 2 1 0 1 2 1 1 2 2 1 1 1 1 2 2 3 4 5 4 4 7 8 8 9 9 9 9 9 9 9 9 9 9 9
2 2 2 2 2 2 2 2 2 2 2 1 1 1 2 2 1 2 2 2 2 1 2 2 2 3 4 3 5 6 7 7 8 9 9 9 8 8 8 9 10 10 10
1 1 2 2 2 2 3 2 2 2 2 2 2 1 1 1 2 2 2 3 2 2 1 2 2 2 3 4 4 5 7 7 7 8 8 8 7 8 9 9 10 11 10
1 1 1 1 2 2 2 2 2 2 2 2 2 1 2 2 2 2 3 3 2 2 2 2 2 2 2 2 4 6 6 6 6 6 6 7 7 8 8 9 9 10 10
1 1 1 1 1 2 2 2 1 1 2 2 2 2 2 2 2 2 2 2 2 2 2 2 2 2 2 2 2 4 4 5 5 5 6 6 7 7 7 7 8 9 9
2 1 1 1 1 1 1 1 1 2 1 2 2 2 2 2 2 2 2 2 1 2 2 3 2 2 2 2 3 3 3 4 5 5 6 6 7 7 7 7 7 7 8
1 1 1 1 1 1 1 1 1 1 1 1 1 1 1 1 1 1 2 2 2 2 3 3 2 2 2 2 3 3 3 4 5 5 6 6 6 6 5 5 6 6 7
1 1 1 1 1 1 1 1 1 1 1 1 1 0 1 1 1 1 1 2 2 3 3 2 3 3 3 2 2 3 3 3 4 5 5 5 5 6 6 5 5 6 6
1 1 1 1 1 1 1 1 1 1 1 0 1 0 1 1 0 1 1 1 1 2 3 3 2 2 2 3 2 2 2 2 2 4 4 5 5 5 6 6 5 5 6
1 1 1 1 1 1 1 1 1 1 1 1 1 0 1 1 1 1 1 1 1 2 3 4 2 2 2 3 2 2 2 1 2 3 3 3 4 4 5 5 5 5 5
1 1 1 0 0 1 1 1 1 1 1 1 1 1 2 1 2 2 1 1 1 1 2 2 3 2 2 2 2 2 2 2 2 2 1 2 3 3 4 4 5 5 6
1 1 1 1 1 0 1 1 1 0 0 1 1 1 2 2 2 2 2 2 1 1 1 2 2 2 2 2 1 2 2 1 2 2 2 1 1 2 3 4 4 5 5
2 2 1 1 1 1 0 0 1 1 0 1 1 1 1 1 1 2 1 1 1 1 1 2 2 2 2 2 2 2 2 2 1 1 1 1 1 1 2 3 4 5 5
1 1 1 1 1 0 0 1 1 1 1 1 1 2 2 2 2 2 2 2 1 2 2 2 2 3 4 3 2 2 1 1 2 1 1 1 1 2 2 1 1 3 4
2 1 1 1 1 1 1 1 2 1 1 1 1 2 2 2 2 2 3 3 3 3 4 3 4 4 4 3 2 2 2 2 2 2 1 2 1 2 2 1 1 2 2
2 2 2 1 1 1 1 1 1 1 1 2 2 2 2 2 2 2 2 3 3 3 3 3 4 5 4 4 4 3 3 2 2 1 1 2 1 2 2 1 0 1 2
2 1 1 2 2 2 2 2 2 1 1 2 2 2 2 2 3 2 2 3 4 4 3 3 4 5 5 4 2 1 1 1 2 1 1 1 1 1 1 1 1 0 1
2 2 1 2 2 2 2 2 3 2 1 1 2 2 2 2 3 2 2 2 3 4 4 4 3 4 3 3 2 3 3 2 2 2 1 1 1 0 1 0 1 0 0
Wind_Direction
251 293 304 311 319 330 317 301 279 280 283 290 271 243 235 228 231 231 241 237 226 224 222 219 216 216 218 216 218 215 211 212 210 209 211 214 218 220 221 221 222 225 229
223 229 275 311 302 288 271 267 270 272 284 282 283 268 249 234 228 228 233 244 235 226 223 221 217 217 217 219 218 219 219 220 217 215 216 217 217 222 225 223 222 224 219
215 220 242 266 272 269 262 271 294 309 292 291 292 282 259 240 234 229 228 230 234 231 225 226 222 218 220 224 223 220 220 224 222 217 217 217 215 217 224 226 226 222 219
213 202 212 251 256 251 247 250 273 298 293 295 297 297 285 253 247 237 225 224 224 230 230 228 223 223 226 229 231 229 221 221 222 222 220 219 219 220 223 225 227 223 221
215 195 205 233 230 229 239 240 222 218 266 291 286 283 282 263 257 250 234 231 227 228 230 237 236 232 233 234 235 234 230 224 224 225 225 223 223 223 223 225 223 224 225
227 204 217 234 209 200 227 223 238 245 244 263 298 311 302 283 263 258 246 234 227 228 225 227 232 238 238 238 235 235 235 231 229 228 227 225 224 223 223 225 225 227 227
227 210 228 218 190 199 224 225 206 258 304 271 30 335 330 329 313 266 247 236 234 231 224 219 216 223 235 237 239 239 239 235 231 230 230 227 224 222 221 222 225 227 226
225 214 204 207 194 197 217 210 178 178 275 130 141 61 345 347 346 340 305 249 249 228 228 230 222 220 230 232 238 237 237 237 236 232 229 229 224 222 221 220 222 225 225
228 224 210 199 201 194 214 222 198 189 215 247 168 162 164 254 305 324 319 309 288 258 251 243 232 227 229 232 240 240 237 235 238 235 231 227 225 222 220 221 223 223 221
236 224 217 207 207 207 220 233 212 202 198 228 213 201 196 188 204 307 318 311 299 279 277 271 258 241 234 235 238 237 239 237 239 238 232 225 219 217 221 228 231 229 227
264 234 220 214 211 213 218 220 215 209 210 219 209 195 188 192 200 203 283 308 318 294 284 272 267 257 247 241 238 237 235 237 239 236 231 224 218 216 221 227 233 235 230
279 272 225 228 220 214 220 218 210 203 215 219 211 197 186 190 198 194 230 264 284 286 284 269 260 261 260 256 256 248 233 230 231 227 223 225 224 223 227 232 235 237 235
265 275 233 236 239 233 228 215 203 216 216 216 219 219 214 221 202 187 202 238 265 288 291 268 253 254 255 247 264 262 243 232 227 221 224 226 225 225 229 233 238 240 236
238 256 225 234 248 249 238 199 199 225 214 220 229 222 224 236 209 199 197 198 250 288 279 270 266 249 259 252 257 257 261 245 226 222 225 226 224 224 228 230 234 239 235
237 244 235 240 251 242 234 194 198 230 213 231 240 234 236 261 228 219 210 206 204 249 275 266 263 262 258 253 255 250 253 252 239 234 233 231 229 223 224 227 231 236 231
248 234 237 226 249 259 244 199 210 208 172 245 239 234 282 288 300 266 230 227 213 211 247 262 253 270 275 274 257 258 260 263 248 243 237 234 231 226 222 222 228 232 227
216 230 230 221 229 236 216 187 206 172 174 293 334 292 285 296 297 306 278 252 235 218 243 269 257 273 273 281 291 277 272 273 268 252 242 232 228 224 221 219 223 226 223
198 210 212 209 230 229 207 186 215 186 185 230 270 299 297 283 284 280 263 264 257 237 239 268 289 293 279 285 287 286 292 289 279 285 258 241 225 221 220 216 214 216 217
166 143 122 132 216 207 192 197 203 211 207 224 243 250 269 273 281 275 261 261 268 267 240 250 281 293 291 308 306 303 303 302 296 305 279 247 225 215 220 221 219 218 214
165 179 175 166 146 171 199 192 179 176 264 290 276 254 257 247 258 264 261 259 257 263 254 255 269 284 286 297 294 288 300 300 307 329 326 295 246 223 229 231 228 225 220
181 178 160 169 166 157 187 143 164 160 211 319 327 310 294 293 284 265 275 265 255 251 262 262 267 275 283 285 275 273 278 296 297 321 303 295 287 267 252 244 234 223 215
152 138 162 195 190 230 42 174 171 177 199 254 301 309 307 320 320 320 306 290 254 246 253 252 257 262 270 268 272 272 282 305 298 311 289 302 303 280 276 262 237 205 204
161 170 194 191 211 231 192 192 193 166 205 251 271 291 302 319 327 323 332 328 313 281 240 234 251 258 260 257 259 262 241 241 259 279 257 288 291 280 282 279 220 186 182
177 194 209 210 221 272 268 233 208 184 229 256 259 260 268 287 296 308 316 319 306 294 266 245 251 263 267 258 237 243 247 250 267 268 225 269 287 284 312 314 0 174 176
184 205 216 207 208 256 246 222 183 189 231 270 276 274 262 273 289 294 291 298 305 304 295 282 270 273 278 280 254 232 233 240 275 283 206 229 272 290 306 316 0 140 194
187 190 220 231 228 252 251 226 190 181 217 274 293 292 279 275 294 298 269 267 282 295 310 319 320 317 305 306 269 228 222 221 239 260 212 203 229 296 304 302 346 7 180